Temp
-8 -7 -7 -7 -7 -7 -6 -6 -7 -7 -7 -7 -7 -6 -5 -5 -5 -6 -6 -6 -6 -6 -6 -6 -6 -6 -5 -6 -6 -6 -6 -6 -6 -7 -6 -6 -6 -6 -6 -6 -7 -7 -7 -7
-8 -8 -8 -7 -7 -7 -7 -7 -6 -7 -7 -7 -7 -7 -6 -6 -5 -4 -5 -6 -6 -6 -6 -6 -6 -6 -6 -6 -6 -6 -6 -6 -6 -6 -7 -7 -6 -6 -6 -6 -7 -7 -7 -7
-8 -8 -8 -8 -8 -8 -7 -7 -6 -6 -6 -7 -7 -7 -7 -6 -6 -6 -6 -7 -7 -6 -6 -6 -6 -6 -6 -6 -6 -6 -6 -6 -6 -6 -7 -7 -6 -6 -6 -6 -6 -7 -7 -7
-9 -8 -8 -8 -8 -8 -8 -8 -7 -6 -6 -7 -8 -8 -7 -7 -7 -7 -7 -7 -8 -7 -7 -6 -6 -6 -6 -6 -6 -6 -6 -6 -6 -6 -7 -7 -6 -6 -6 -6 -6 -6 -7 -6
-9 -9 -9 -8 -8 -8 -8 -8 -8 -7 -6 -7 -8 -9 -8 -7 -7 -7 -7 -7 -7 -8 -7 -6 -7 -6 -6 -6 -6 -6 -5 -6 -6 -6 -6 -6 -7 -6 -7 -7 -7 -6 -6 -6
-9 -9 -9 -9 -9 -9 -8 -9 -8 -7 -7 -7 -8 -8 -8 -8 -8 -8 -7 -7 -7 -7 -7 -8 -6 -6 -6 -5 -6 -6 -5 -6 -6 -6 -6 -6 -7 -7 -6 -7 -7 -6 -6 -6
-9 -9 -9 -9 -9 -9 -9 -9 -9 -8 -7 -7 -8 -8 -8 -8 -8 -8 -8 -7 -7 -7 -7 -6 -7 -7 -6 -6 -5 -6 -6 -6 -6 -6 -6 -6 -7 -7 -6 -6 -7 -6 -6 -6
-10 -9 -9 -9 -9 -9 -9 -9 -9 -8 -7 -8 -8 -8 -8 -8 -8 -8 -8 -8 -7 -7 -7 -7 -7 -7 -7 -7 -6 -6 -6 -6 -6 -6 -6 -6 -7 -7 -6 -6 -6 -6 -6 -6
-11 -10 -9 -10 -9 -10 -10 -9 -9 -9 -9 -9 -9 -8 -8 -8 -8 -8 -8 -8 -8 -8 -7 -8 -6 -7 -7 -7 -7 -6 -6 -7 -6 -6 -6 -6 -7 -7 -7 -6 -6 -6 -6 -6
-12 -11 -11 -10 -10 -10 -10 -10 -10 -9 -9 -9 -9 -9 -8 -8 -8 -8 -8 -8 -8 -8 -8 -7 -7 -6 -6 -6 -7 -7 -6 -7 -7 -6 -6 -6 -6 -6 -6 -6 -6 -6 -6 -6
-13 -13 -12 -12 -11 -11 -11 -10 -10 -10 -10 -10 -9 -8 -8 -8 -8 -9 -8 -8 -8 -8 -8 -8 -7 -7 -7 -6 -6 -6 -6 -6 -6 -6 -6 -6 -6 -6 -6 -6 -6 -6 -6 -6
-15 -14 -14 -13 -12 -12 -11 -11 -11 -11 -10 -10 -9 -9 -9 -8 -8 -8 -9 -9 -8 -8 -8 -8 -9 -7 -7 -7 -6 -6 -6 -6 -6 -6 -5 -5 -6 -6 -5 -6 -6 -6 -5 -6
-15 -15 -15 -14 -13 -13 -12 -11 -11 -11 -11 -11 -10 -9 -9 -8 -8 -8 -8 -9 -9 -9 -8 -9 -9 -9 -7 -8 -8 -7 -6 -6 -6 -6 -6 -5 -5 -6 -6 -6 -5 -5 -5 -5
-15 -15 -14 -14 -14 -14 -13 -13 -12 -11 -11 -11 -11 -10 -9 -9 -9 -9 -9 -9 -8 -8 -8 -8 -8 -9 -8 -9 -9 -8 -8 -7 -6 -6 -6 -6 -5 -5 -6 -5 -5 -5 -5 -5
-15 -15 -14 -14 -14 -14 -13 -13 -12 -12 -12 -12 -11 -11 -10 -9 -9 -9 -9 -8 -8 -8 -8 -8 -8 -8 -9 -9 -9 -8 -8 -7 -7 -6 -6 -6 -6 -6 -6 -6 -5 -5 -5 -5
-15 -15 -15 -14 -14 -14 -14 -13 -13 -13 -12 -12 -12 -11 -10 -10 -10 -9 -9 -9 -8 -8 -9 -8 -8 -8 -9 -8 -9 -8 -8 -7 -7 -7 -7 -7 -6 -7 -6 -6 -6 -5 -5 -5
-15 -15 -15 -15 -15 -15 -14 -14 -13 -13 -13 -13 -13 -12 -11 -11 -11 -10 -10 -10 -9 -9 -8 -9 -9 -8 -8 -8 -8 -8 -8 -8 -7 -7 -7 -7 -7 -6 -6 -6 -6 -6 -5 -5
-16 -15 -15 -15 -15 -15 -14 -14 -14 -14 -14 -14 -14 -13 -12 -12 -11 -11 -11 -10 -10 -10 -9 -9 -9 -9 -8 -8 -8 -8 -8 -8 -8 -7 -7 -7 -7 -7 -7 -7 -6 -7 -6 -5
-16 -16 -15 -15 -14 -14 -14 -14 -14 -14 -14 -14 -14 -14 -13 -13 -12 -12 -12 -11 -11 -10 -10 -9 -9 -9 -9 -8 -8 -8 -8 -8 -8 -8 -8 -7 -7 -6 -7 -7 -7 -6 -6 -6
-17 -17 -16 -16 -15 -14 -14 -15 -15 -15 -14 -14 -14 -14 -14 -13 -13 -12 -12 -12 -12 -11 -11 -10 -10 -9 -9 -9 -9 -9 -9 -9 -8 -8 -8 -8 -7 -7 -7 -7 -7 -7 -7 -6
-17 -17 -17 -17 -16 -16 -15 -16 -16 -15 -15 -15 -15 -15 -14 -14 -14 -13 -13 -13 -13 -12 -12 -11 -11 -10 -9 -9 -9 -9 -9 -9 -9 -9 -8 -8 -8 -7 -7 -7 -7 -6 -7 -6
-18 -17 -17 -17 -17 -16 -16 -17 -16 -16 -16 -16 -16 -16 -15 -15 -15 -14 -14 -13 -13 -13 -12 -12 -12 -11 -10 -9 -9 -8 -9 -9 -8 -9 -8 -9 -10 -9 -8 -7 -7 -7 -6 -5
-18 -18 -18 -18 -18 -18 -17 -17 -17 -17 -17 -17 -17 -17 -16 -16 -16 -16 -15 -15 -14 -13 -13 -12 -12 -12 -11 -11 -10 -9 -9 -9 -9 -9 -8 -9 -8 -9 -8 -8 -7 -7 -6 -6
-18 -17 -18 -17 -17 -17 -17 -17 -17 -17 -17 -17 -17 -17 -17 -17 -16 -16 -16 -16 -16 -15 -14 -13 -12 -12 -12 -12 -11 -10 -10 -10 -9 -9 -9 -9 -9 -9 -9 -8 -8 -8 -7 -6
-18 -18 -18 -17 -18 -18 -18 -18 -18 -18 -18 -18 -18 -17 -17 -17 -18 -17 -17 -16 -16 -16 -15 -15 -14 -13 -12 -12 -12 -11 -11 -11 -10 -11 -10 -9 -9 -9 -9 -8 -8 -7 -7 -8
-19 -18 -18 -18 -18 -18 -18 -18 -18 -18 -18 -18 -18 -18 -18 -18 -18 -18 -18 -18 -18 -17 -16 -15 -15 -15 -14 -13 -12 -12 -11 -11 -11 -10 -10 -10 -9 -9 -8 -8 -8 -7 -8 -7
Height
5841 5847 5852 5854 5857 5862 5867 5872 5875 5879 5883 5887 5890 5894 5897 5899 5900 5901 5903 5907 5908 5910 5914 5917 5919 5921 5924 5926 5930 5933 5934 5936 5937 5935 5936 5938 5941 5943 5942 5941 5941 5942 5943 5945
5838 5842 5844 5849 5853 5857 5862 5867 5871 5875 5881 5884 5889 5894 5898 5900 5901 5901 5901 5904 5907 5910 5913 5917 5920 5921 5923 5924 5929 5932 5934 5936 5938 5938 5937 5939 5942 5944 5943 5943 5944 5945 5946 5948
5833 5837 5840 5845 5849 5854 5859 5863 5867 5872 5878 5882 5888 5892 5896 5900 5902 5903 5904 5904 5906 5909 5911 5915 5919 5920 5922 5925 5927 5930 5932 5935 5938 5939 5938 5939 5941 5945 5946 5946 5947 5947 5949 5950
5826 5830 5835 5841 5845 5851 5855 5859 5864 5868 5873 5879 5885 5890 5893 5898 5899 5899 5901 5901 5904 5907 5911 5913 5917 5919 5920 5923 5926 5929 5932 5934 5937 5939 5939 5941 5942 5945 5948 5948 5949 5949 5950 5951
5822 5826 5830 5836 5842 5847 5850 5853 5857 5864 5869 5875 5881 5887 5891 5893 5894 5896 5897 5898 5899 5902 5905 5909 5912 5915 5917 5922 5924 5927 5931 5934 5935 5939 5939 5941 5944 5946 5947 5949 5950 5951 5952 5953
5814 5819 5825 5830 5834 5840 5844 5848 5854 5860 5864 5871 5877 5881 5886 5888 5890 5893 5894 5898 5899 5900 5902 5905 5908 5912 5917 5920 5923 5926 5929 5933 5934 5938 5940 5940 5943 5946 5949 5949 5951 5953 5953 5954
5807 5812 5818 5824 5829 5834 5839 5844 5849 5855 5859 5864 5872 5876 5881 5884 5886 5890 5893 5896 5898 5899 5899 5901 5905 5910 5914 5920 5923 5926 5928 5931 5933 5936 5939 5940 5942 5945 5948 5950 5950 5953 5955 5955
5801 5807 5811 5817 5823 5829 5834 5839 5844 5848 5854 5860 5866 5870 5874 5877 5881 5885 5890 5894 5897 5899 5899 5901 5902 5904 5910 5914 5918 5922 5927 5928 5932 5935 5938 5940 5943 5945 5947 5950 5950 5951 5955 5957
5794 5800 5805 5810 5816 5823 5827 5833 5838 5843 5849 5854 5858 5863 5869 5871 5875 5880 5885 5891 5894 5897 5896 5898 5901 5902 5904 5909 5914 5918 5921 5924 5928 5932 5936 5938 5941 5944 5946 5949 5951 5951 5953 5955
5788 5794 5798 5804 5810 5816 5820 5827 5832 5837 5842 5846 5850 5856 5859 5865 5869 5875 5880 5886 5890 5893 5894 5894 5897 5900 5903 5904 5906 5911 5916 5920 5922 5926 5932 5936 5938 5941 5944 5947 5950 5951 5952 5953
5783 5788 5793 5797 5801 5808 5814 5818 5825 5831 5835 5839 5844 5849 5854 5860 5864 5869 5875 5880 5884 5888 5891 5893 5896 5899 5901 5903 5904 5907 5911 5915 5919 5922 5926 5931 5935 5938 5941 5943 5946 5949 5951 5952
5778 5782 5786 5790 5795 5801 5807 5812 5817 5822 5828 5832 5838 5843 5846 5853 5858 5864 5869 5874 5878 5882 5885 5889 5891 5893 5897 5901 5903 5904 5906 5910 5914 5918 5920 5924 5928 5933 5937 5940 5941 5945 5947 5950
5773 5776 5780 5785 5791 5794 5800 5805 5810 5816 5821 5824 5831 5834 5839 5846 5852 5857 5862 5867 5871 5875 5879 5882 5886 5888 5890 5894 5897 5902 5904 5906 5909 5912 5916 5919 5924 5927 5932 5935 5938 5940 5943 5945
5769 5771 5775 5779 5783 5788 5792 5797 5802 5807 5812 5817 5821 5826 5831 5837 5843 5848 5853 5857 5861 5865 5870 5874 5878 5882 5884 5887 5890 5893 5897 5901 5905 5908 5911 5916 5919 5923 5925 5928 5931 5935 5938 5941
5762 5765 5769 5772 5776 5780 5784 5788 5793 5798 5803 5807 5812 5816 5822 5826 5832 5838 5842 5847 5851 5855 5860 5864 5869 5874 5878 5881 5883 5886 5889 5893 5898 5901 5905 5910 5913 5916 5920 5923 5926 5929 5932 5935
5755 5758 5762 5765 5769 5773 5776 5780 5785 5790 5794 5798 5801 5806 5811 5816 5820 5826 5831 5836 5841 5844 5849 5853 5858 5862 5868 5873 5876 5879 5882 5884 5887 5892 5896 5900 5903 5907 5912 5916 5919 5923 5927 5930
5748 5751 5755 5758 5761 5765 5769 5772 5777 5781 5785 5789 5793 5798 5802 5806 5809 5814 5820 5824 5829 5833 5837 5842 5846 5850 5855 5861 5866 5870 5873 5874 5878 5883 5886 5889 5893 5898 5902 5906 5910 5916 5919 5922
5740 5744 5747 5751 5754 5757 5761 5764 5768 5771 5775 5779 5783 5787 5792 5796 5799 5803 5807 5812 5817 5821 5826 5830 5834 5839 5843 5848 5853 5859 5864 5867 5867 5867 5874 5878 5884 5890 5894 5899 5903 5908 5911 5915
5733 5735 5738 5742 5745 5749 5752 5756 5759 5761 5766 5768 5772 5776 5781 5786 5789 5792 5796 5800 5805 5810 5814 5819 5823 5826 5831 5835 5841 5848 5853 5857 5859 5862 5863 5868 5873 5879 5884 5889 5892 5896 5901 5904
5725 5727 5731 5733 5736 5739 5744 5746 5748 5751 5756 5759 5762 5766 5771 5775 5778 5780 5783 5787 5791 5795 5800 5806 5810 5814 5818 5823 5827 5833 5838 5843 5849 5853 5857 5862 5865 5867 5872 5878 5882 5885 5887 5893
5718 5719 5721 5724 5726 5730 5733 5736 5739 5743 5752 5749 5753 5756 5759 5762 5766 5769 5771 5773 5778 5781 5786 5790 5796 5801 5805 5809 5814 5819 5824 5829 5835 5841 5845 5849 5854 5856 5861 5866 5871 5874 5873 5881
5714 5714 5714 5716 5718 5722 5724 5726 5730 5734 5735 5739 5742 5745 5748 5750 5752 5755 5757 5760 5763 5767 5770 5774 5780 5785 5790 5795 5800 5803 5809 5814 5819 5826 5830 5834 5840 5844 5849 5854 5860 5865 5867 5868
5710 5710 5710 5711 5711 5712 5714 5717 5720 5723 5726 5728 5731 5734 5736 5737 5739 5741 5743 5745 5747 5751 5754 5758 5764 5769 5773 5779 5784 5789 5792 5798 5805 5810 5814 5818 5824 5829 5834 5841 5846 5851 5855 5857
5703 5704 5705 5706 5707 5708 5710 5711 5713 5715 5717 5719 5720 5723 5723 5724 5725 5727 5729 5730 5731 5733 5737 5741 5747 5753 5758 5761 5767 5773 5777 5781 5789 5794 5800 5805 5811 5817 5821 5826 5832 5838 5839 5844
5695 5696 5697 5699 5700 5703 5704 5706 5707 5708 5709 5710 5710 5710 5711 5712 5711 5711 5713 5714 5715 5716 5719 5723 5728 5733 5738 5741 5749 5753 5760 5765 5771 5778 5784 5789 5794 5801 5807 5812 5818 5823 5824 5829
5685 5686 5690 5691 5691 5693 5694 5695 5697 5698 5698 5698 5697 5698 5699 5699 5699 5699 5699 5698 5696 5697 5699 5703 5707 5712 5718 5723 5728 5734 5740 5747 5754 5760 5767 5773 5780 5785 5791 5798 5802 5807 5811 5814
Wind_Speed
23 23 21 25 27 26 26 24 23 21 19 17 17 17 20 28 26 19 15 14 16 17 15 14 18 21 20 19 18 18 15 12 14 17 15 16 13 11 14 14 16 16 12 11
21 22 27 28 27 27 28 28 29 25 24 24 23 19 17 22 16 13 16 16 16 15 14 15 15 20 21 22 21 18 16 13 12 16 18 15 13 11 13 15 13 15 14 13
22 24 26 27 28 27 28 30 31 29 27 26 24 21 22 19 15 16 16 16 14 14 16 17 18 21 21 22 23 21 21 16 14 16 19 19 17 13 13 14 14 13 14 13
28 27 25 26 28 28 26 27 31 32 29 27 26 26 23 21 22 26 19 18 17 16 16 17 20 21 24 25 25 23 21 20 18 18 20 19 18 15 12 12 13 13 11 12
30 29 27 25 25 27 28 30 33 33 32 31 29 28 27 25 26 25 26 23 21 16 21 21 22 24 28 27 27 25 23 21 20 20 20 19 17 16 15 13 11 10 11 11
33 33 32 30 29 28 31 31 30 30 32 31 32 32 29 27 30 28 28 25 24 24 17 25 23 24 23 27 27 27 24 22 21 19 19 21 19 18 15 14 13 12 11 11
34 36 36 34 33 32 30 31 32 32 32 32 31 35 32 31 31 31 29 26 25 24 28 28 25 23 22 22 24 25 25 23 21 21 19 21 21 19 16 16 14 11 10 10
34 37 37 37 36 35 34 32 32 34 31 29 27 33 35 35 34 32 31 28 24 25 27 27 27 29 25 23 26 28 26 25 23 21 21 21 20 20 18 16 15 14 10 8
32 36 38 39 39 37 37 36 34 32 32 30 32 31 32 34 35 35 33 29 26 22 29 27 26 31 31 26 24 28 31 30 27 25 23 23 22 23 21 18 17 15 14 11
29 31 36 37 39 40 40 38 39 37 36 37 35 33 35 34 33 32 31 30 29 27 22 28 29 27 28 29 31 32 33 33 33 32 27 26 25 25 24 21 18 17 14 12
27 29 31 33 37 39 41 42 41 40 40 39 37 36 35 34 34 32 29 28 31 29 29 24 21 26 26 29 30 31 34 36 36 34 32 29 28 27 26 25 22 19 17 15
21 24 27 30 32 35 38 41 43 43 43 42 40 38 38 34 34 34 33 31 30 29 29 28 26 28 30 30 29 31 34 36 37 38 36 34 32 30 27 26 25 23 20 18
24 26 26 29 30 31 34 36 40 42 44 44 42 43 39 38 37 35 34 36 35 34 33 32 30 29 26 29 31 29 30 33 37 39 39 37 35 33 31 30 28 27 24 22
30 30 31 33 33 32 32 33 35 39 42 44 45 43 42 41 38 37 38 38 38 40 38 38 36 34 31 32 30 32 32 31 32 33 37 37 36 36 36 35 33 31 29 26
30 35 36 35 36 35 36 36 36 38 39 43 44 44 44 44 43 41 41 40 40 40 39 39 41 39 40 38 35 35 38 35 34 34 33 35 37 38 39 38 36 35 32 30
29 34 37 39 39 38 39 38 37 36 37 39 40 41 43 45 45 44 45 44 44 44 42 42 42 43 45 47 44 42 41 46 40 40 37 37 39 40 41 40 41 40 36 34
26 29 31 35 37 38 39 39 39 39 39 39 39 39 39 40 42 43 42 43 46 48 49 46 45 44 44 46 48 49 46 42 38 42 42 40 40 39 41 43 43 43 42 40
27 28 30 31 33 36 37 37 37 39 40 40 40 40 41 42 43 43 42 44 46 49 52 52 50 49 47 46 49 51 51 48 52 48 54 46 42 39 37 38 41 43 44 43
25 27 30 30 33 34 35 35 37 39 40 42 43 43 43 43 44 45 45 45 46 47 52 55 55 55 53 51 49 50 54 52 51 46 37 44 43 42 40 38 36 38 45 45
21 24 28 30 33 33 33 35 36 38 39 40 41 42 43 44 46 48 50 51 50 50 50 55 59 60 60 57 55 52 54 56 54 53 52 49 51 48 48 45 45 45 47 42
14 19 24 28 32 34 36 37 38 38 37 38 39 40 41 43 45 47 49 52 52 53 53 54 56 63 65 64 61 60 57 58 58 56 59 60 59 58 52 53 51 48 47 37
9 11 15 22 28 33 36 38 37 36 37 38 39 39 40 42 45 47 50 53 54 55 56 57 58 59 66 69 68 66 63 63 60 60 60 61 61 54 60 60 59 57 50 53
12 10 10 11 13 18 27 35 37 37 36 36 37 38 39 42 44 46 48 53 56 59 61 61 60 60 62 69 72 72 70 66 63 63 62 65 60 54 56 61 60 61 62 59
17 16 15 12 10 8 7 11 19 24 26 26 27 32 37 41 47 51 52 52 53 58 61 63 65 64 63 65 71 75 75 74 68 65 64 60 61 55 54 60 64 61 63 56
22 22 23 24 23 20 19 20 22 24 25 25 28 28 31 33 36 38 48 58 60 60 60 61 64 66 67 69 67 72 80 79 76 66 61 61 59 62 61 64 67 65 68 57
28 28 24 27 29 30 30 32 32 32 35 35 35 36 37 38 37 37 40 40 48 60 65 64 62 62 66 70 72 73 74 82 83 80 72 67 59 61 60 61 59 53 49 69
Wind_Direction
211 212 208 207 212 209 207 204 204 195 180 190 179 174 181 170 169 169 182 184 175 181 184 182 187 183 174 158 164 163 158 157 152 138 130 129 127 130 121 114 114 117 127 133
212 207 208 206 206 209 205 208 207 201 185 192 185 182 190 177 190 208 180 180 175 177 189 182 189 185 183 167 170 175 168 160 161 143 136 130 135 141 129 127 123 118 126 141
207 213 213 208 208 208 207 207 211 208 196 194 193 191 184 188 195 199 183 181 185 184 185 184 185 187 189 179 177 183 176 167 169 161 152 147 146 147 141 131 133 129 132 133
207 212 211 209 208 207 208 212 213 216 206 199 198 191 190 194 195 195 198 188 191 204 200 201 190 187 189 193 186 187 183 172 174 176 164 160 149 147 145 135 132 137 142 139
210 213 212 212 209 206 206 210 215 214 217 204 200 200 198 203 206 206 207 194 193 190 198 194 196 194 195 194 193 192 188 180 179 184 174 164 158 159 158 152 150 143 146 149
209 211 211 209 208 204 208 213 216 217 219 212 200 206 199 203 209 208 204 200 196 193 178 200 206 202 199 199 197 196 192 189 185 188 185 170 169 168 174 166 163 162 155 158
210 212 212 211 211 208 209 212 217 218 218 218 202 206 203 206 207 210 214 210 207 203 210 200 197 203 199 200 202 204 198 195 197 190 193 185 178 177 178 174 168 165 160 161
214 213 213 213 212 211 210 211 218 222 221 220 214 207 209 210 211 213 214 215 212 203 210 209 198 195 199 198 200 202 206 202 204 204 196 197 192 188 183 185 177 164 162 164
213 216 217 213 214 211 213 212 215 219 221 221 219 219 210 213 217 218 219 214 218 210 211 203 212 200 197 196 202 203 202 204 205 212 208 200 202 198 192 193 189 178 173 170
216 215 219 216 217 213 214 214 212 216 220 222 223 222 221 218 220 219 217 213 210 210 219 208 207 215 206 198 199 203 205 205 205 206 213 211 205 209 200 198 201 196 189 187
214 215 218 218 216 215 212 214 215 217 220 223 226 227 225 223 225 227 222 216 212 214 212 220 222 221 220 210 208 205 208 208 212 211 210 213 212 213 212 205 206 205 202 202
214 216 216 220 218 217 217 216 218 217 221 224 226 229 229 227 228 229 228 227 223 220 221 216 219 221 216 226 225 219 213 211 212 218 213 212 214 215 217 217 213 212 212 213
211 214 214 218 221 219 217 217 220 222 224 226 228 230 232 230 228 228 230 229 229 229 226 226 220 231 210 217 228 231 228 219 217 218 221 218 218 215 218 220 223 221 220 219
222 222 220 220 221 223 221 217 217 219 223 226 229 231 232 233 232 230 229 231 230 231 232 232 230 221 228 218 227 224 228 228 226 226 225 228 226 225 220 222 225 224 225 227
225 225 227 227 227 226 228 227 221 219 222 225 228 230 230 232 231 230 232 229 231 233 232 231 232 229 218 222 227 233 230 227 231 226 226 228 230 234 232 231 231 231 229 229
231 230 229 230 231 231 232 233 233 231 228 228 230 231 230 232 234 232 231 231 230 231 233 233 230 231 232 228 227 230 232 223 224 229 228 227 229 231 232 232 235 235 234 235
234 233 234 235 234 234 235 234 235 236 238 237 236 236 236 237 236 236 231 229 228 229 230 231 234 233 231 231 233 231 233 239 237 232 229 231 231 231 232 232 235 237 236 234
242 236 233 233 233 233 234 234 235 236 237 239 241 241 239 239 240 242 239 234 228 227 229 230 230 235 235 231 230 233 233 233 240 237 226 224 229 232 237 241 239 239 241 240
243 243 241 236 233 233 233 234 235 234 236 238 240 241 242 242 241 242 243 243 241 233 229 229 230 232 234 235 233 233 237 235 241 243 240 236 227 234 234 233 235 236 237 240
253 246 242 242 241 237 234 233 233 234 235 238 241 242 242 243 244 243 243 242 242 241 238 231 230 231 234 234 235 233 235 238 238 240 239 241 237 235 232 232 233 235 235 235
262 252 246 243 242 242 241 237 235 237 237 239 241 245 247 247 246 246 245 246 245 245 243 238 234 231 232 235 236 235 235 236 239 240 242 246 240 236 235 237 235 236 247 240
277 264 253 243 243 240 240 242 241 238 238 241 242 244 247 249 250 250 250 249 248 247 247 243 239 235 233 232 234 238 236 236 237 241 244 248 246 235 235 236 236 238 238 241
255 258 266 266 252 242 235 235 240 243 246 249 249 250 252 253 253 252 252 251 250 249 248 247 244 241 238 233 233 235 238 237 237 240 241 248 250 240 241 239 241 243 242 246
251 244 247 235 233 225 227 234 237 238 242 244 248 253 258 263 261 258 256 254 253 251 249 248 247 246 244 241 236 234 236 237 238 240 241 245 244 246 242 241 238 242 242 246
255 253 243 242 247 244 247 231 229 244 260 265 270 271 267 273 281 274 263 256 254 252 252 250 248 246 245 244 240 239 236 237 237 237 238 239 246 238 242 239 240 245 249 251
248 249 260 255 253 252 252 255 256 260 266 269 272 273 275 276 273 274 285 277 264 257 252 250 250 249 247 248 244 240 239 236 238 238 238 236 236 235 234 242 242 235 243 248